Location: Chircca
(13.7944°S, 72.0608°W)
Time: 04:48:06
(UTC+00:00)

Cosmos 540 Rocket - Pass Details

Date: 14 July 2020
Orbit: 740 x 754 km, 74.1° (Epoch: 14 August)

Event Time Altitude Azimuth Distance (km) Brightness Sun altitude
Rises 09:47:23 0° 345° (NNW) 3,182 6.8 -20.3°
Reaches altitude 10° 09:49:43 10° 344° (NNW) 2,265 6.0 -19.8°
Maximum altitude 09:54:51 79° 258° (WSW) 771 3.3 -18.6°
Drops below altitude 10° 10:00:03 10° 170° (S) 2,288 5.9 -17.4°
Sets 10:02:26 0° 169° (SSE) 3,217 6.7 -16.9°
